Regional Weather Roundup
Issued by NWS Little Rock, AR

Home | Current Version | Previous Version | Graphics & Text | Print | Product List | Glossary On
Versions: 1 2 3 4 5 6 7 8 9 10 11 12 13 14 15 16 17 18 19 20 21 22 23 24 25 26 27 28 29 30 31 32 33 34
000
ASUS44 KLZK 041005
RWRLZK

WEATHER ROUNDUP FOR ARKANSAS
NATIONAL WEATHER SERVICE LITTLE ROCK AR
400 AM CST SUN DEC 04 2016

NOTE: "FAIR" INDICATES FEW OR NO CLOUDS BELOW 12,000 FEET WITH NO
SIGNIFICANT WEATHER AND/OR OBSTRUCTIONS TO VISIBILITY.

ARZ001-003-010-029-041100-
NORTHWEST ARKANSAS

CITY           SKY/WX    TMP DP  RH WIND       PRES   REMARKS
FAYETTEVILLE   CLOUDY    42  42 100 CALM      29.98F
FORT SMITH     CLOUDY    43  41  93 E8        30.02S
HARRISON       CLOUDY    38  38 100 SE9       30.01F FOG
BENTONVILLE    CLOUDY    41  36  81 SE7       30.00F
ROGERS         CLOUDY    40  39  97 E6        30.00F
SILOAM SPGS    CLOUDY    41  39  93 CALM      30.00S
HIGHFILL       CLOUDY    41  40  96 E5        29.99F FOG
$$

ARZ004-005-016-041100-
NORTH CENTRAL ARKANSAS

CITY           SKY/WX    TMP DP  RH WIND       PRES   REMARKS
BATESVILLE     CLOUDY    39  37  93 N3        30.06F
FLIPPIN        CLOUDY    39  36  87 NE3       30.02F
MTN HOME       LGT RAIN  38  37  97 SE6       30.03F FOG
$$

ARZ040-041-041100-
WEST CENTRAL ARKANSAS

CITY           SKY/WX    TMP DP  RH WIND       PRES   REMARKS
MENA           CLOUDY    45  45 100 E5        29.98F
MOUNT IDA      CLOUDY    44  42  93 CALM      29.96S
$$

ARZ009-017-025-026-028-041100-
NORTHEAST ARKANSAS

CITY           SKY/WX    TMP DP  RH WIND       PRES   REMARKS
CORNING        CLOUDY    39  39 100 NE13      30.08F
JONESBORO      CLOUDY    40  39  97 E14       30.06F
NEWPORT        CLOUDY    41  40  96 NE12      30.04F FOG
WALNUT RIDGE   CLOUDY    39  36  87 NE12      30.06F
BLYTHEVILLE    CLOUDY    41  39  93 E8        30.08F
$$

ARZ022-023-033-042-044-041100-
CENTRAL ARKANSAS

CITY           SKY/WX    TMP DP  RH WIND       PRES   REMARKS
LITTLE ROCK    CLOUDY    42  42 100 NE9       30.01F
N LITTLE ROCK    N/A     41  40  96 E8        30.02F
JACKSONVILLE   CLOUDY    42  42  99 NE7       30.00F
SEARCY         CLOUDY    42  41  96 NE9       30.05F
HOT SPRINGS    CLOUDY    44  43  96 NE6       29.99F
RUSSELLVILLE   CLOUDY    42  40  92 VRB6      30.01F
CLINTON        CLOUDY    41  41 100 CALM      30.02F
$$

ARZ036-041100-
EAST ARKANSAS

CITY           SKY/WX    TMP DP  RH WIND       PRES   REMARKS
WEST MEMPHIS   LGT RAIN  42  42 100 NE7       30.05F FOG
$$

ARZ050-053-066-070-073-041100-
SOUTHWEST ARKANSAS

CITY           SKY/WX    TMP DP  RH WIND       PRES   REMARKS
ARKADELPHIA    CLOUDY    45  44  97 NE7       29.98F
CAMDEN         CLOUDY    46  41  81 E8        29.95F
TEXARKANA      CLOUDY    46  46 100 NE5       29.97R
EL DORADO      CLOUDY    46  45  96 NE8       29.94F
DE QUEEN       CLOUDY    47  46  97 E9        29.97R
$$

ARZ056-057-069-041100-
SOUTHEAST ARKANSAS

CITY           SKY/WX    TMP DP  RH WIND       PRES   REMARKS
PINE BLUFF     CLOUDY    44  43  96 E14       29.96F
STUTTGART      CLOUDY    45  39  81 E12       30.00F
MONTICELLO     CLOUDY    45  44  97 NE12      29.98F

$$






USA.gov is the U.S. government's official web portal to all federal, state and local government web resources and services.